[Iaude] MPEC U123: 2013 UF17 [a=39.28,e=0.25,i=17.2,H=8.9]

mpec at mpcdb1.cfa.harvard.edu mpec at mpcdb1.cfa.harvard.edu
Thu Oct 19 20:45:16 EDT 2017


M.P.E.C. 2017-U123                               Issued 2017 Oct. 20, 00:42 UT
 
     The Minor Planet Electronic Circulars contain information on unusual
         minor planets and routine data on comets.  They are published
    on behalf of Division F of the International Astronomical Union by the
          Minor Planet Center, Smithsonian Astrophysical Observatory,
                          Cambridge, MA 02138, U.S.A.

             Prepared using the Tamkin Foundation Computer Network

                              MPC at CFA.HARVARD.EDU
            URL http://www.minorplanetcenter.net/    ISSN 1523-6714


                                   2013 UF17
 
Observations:
     K13U17F @C2013 08 02.52019 01 01 04.814+05 19 38.78         23.8 rqEU123568
     K13U17F @C2013 08 02.56292 01 01 04.755+05 19 37.99         23.8 rqEU123568
     K13U17F @C2013 08 30.43573 00 59 45.917+05 07 05.32         23.8 rqEU123568
     K13U17F @C2013 08 31.43992 00 59 41.722+05 06 30.07         23.7 rqEU123568
     K13U17F @C2013 08 31.48289 00 59 41.539+05 06 28.61         23.8 rqEU123568
     K13U17F @C2013 09 04.41593 00 59 24.345+05 04 05.95         23.7 rqEU123568
     K13U17F @C2013 09 04.45871 00 59 24.143+05 04 04.32         23.6 rqEU123568
     K13U17F @C2013 10 06.38359 00 56 33.317+04 41 52.43         23.7 rqEU123568
     K13U17F @C2013 10 06.44798 00 56 32.935+04 41 49.55         23.3 rqEU123568
     K13U17F @C2013 10 06.45762 00 56 32.881+04 41 49.06         23.6 rqEU123568
     K13U17F @C2013 10 06.46264 00 56 32.840+04 41 48.88         23.5 rqEU123568
     K13U17F @C2013 10 09.51275 00 56 15.089+04 39 35.06         23.6 rqEU123568
     K13U17F*@C2013 10 31.23096 00 54 13.498+04 24 23.06         23.8 rqEU123568
     K13U17F @C2013 10 31.27407 00 54 13.259+04 24 21.40         23.7 rqEU123568
     K13U17F @C2013 10 31.31685 00 54 13.037+04 24 19.71         23.8 rqEU123568
     K13U17F @C2013 11 01.25731 00 54 08.175+04 23 43.21         23.5 rqEU123568
     K13U17F @C2013 11 01.37789 00 54 07.538+04 23 38.62         23.9 rqEU123568
     K13U17F @C2013 11 05.38291 00 53 47.402+04 21 07.35         23.6 rqEU123568
     K13U17F @C2013 11 29.22005 00 52 13.176+04 09 02.93         24.0 rqEU123568
     K13U17F @C2013 12 04.24712 00 52 00.207+04 07 16.52         23.7 rqEU123568
     K13U17F @C2013 12 04.29457 00 52 00.083+04 07 15.44         23.6 rqEU123568
     K13U17F @C2013 12 06.21068 00 51 55.914+04 06 39.94         23.8 rqEU123568
     K13U17F @C2014 06 27.59782 01 09 52.700+05 35 34.37         23.9 rqEU123568
     K13U17F @C2014 06 28.60286 01 09 55.792+05 35 42.46         23.9 rqEU123568
     K13U17F @C2014 07 24.56087 01 10 35.050+05 34 59.83         23.7 rqEU123568
     K13U17F @C2014 07 27.59171 01 10 34.469+05 34 22.95         23.8 rqEU123568
     K13U17F @C2014 08 22.56426 01 09 47.089+05 24 53.44         24.0 rqEU123568
     K13U17F @C2014 10 23.36016 01 04 33.416+04 43 49.40         23.5 rqEU123568
     K13U17F @C2014 10 26.45694 01 04 16.032+04 41 42.93         23.6 rqEU123568
     K13U17F @C2014 10 27.39884 01 04 10.880+04 41 04.71         23.7 rqEU123568
     K13U17F @C2014 11 24.23611 01 02 00.223+04 25 13.91         23.9 rqEU123568
     K13U17F @C2014 11 24.24000 01 02 00.203+04 25 13.95         23.8 rqEU123568
     K13U17F @C2014 11 25.23226 01 01 56.661+04 24 47.84         24.1 rqEU123568
     K13U17F @C2014 11 25.23617 01 01 56.646+04 24 47.68         23.8 rqEU123568
     K13U17F @C2014 12 17.26663 01 01 04.496+04 18 06.61         23.9 rqEU123568
     K13U17F @C2015 01 17.29797 01 01 29.415+04 19 15.45         23.8 rqEU123568
     K13U17F @C2015 08 20.51066 01 19 17.556+05 38 38.24         23.8 rqEU123568
     K13U17F @C2015 12 07.38604 01 10 44.024+04 33 47.32         23.6 wqEU123568
 
Observer details:
568 Mauna Kea.  Observers M. T. Bannister, J. J. Kavelaars, B. J. Gladman,
    J.-M. Petit, T. Burdullis.  Measurers S. D. J. Gwyn, Y.-T. Chen,
    M. Alexandersen.  3.6-m Canada-France-Hawaii Telescope + CCD.
 
Orbital elements:
2013 UF17
Epoch 2017 Sept. 4.0 TT = JDT 2458000.5                 MPC
M  26.34396              (2000.0)            P               Q
n   0.00400429     Peri.  149.55078     +0.93799269     +0.34215211
a  39.2752772      Node   190.88219     -0.34642046     +0.93109127
e   0.2485213      Incl.   17.15731     +0.01275058     +0.12649497
P 246              H    8.9           G   0.15           U   3
Residuals in seconds of arc
130802 568  0.1-  0.1+    131031 568  0.1-  0.0     140822 568  0.1+  0.0
130802 568  0.0   0.0     131031 568  0.0   0.0     141023 568  0.0   0.1+
130830 568  0.0   0.0     131101 568  0.0   0.0     141026 568  0.7-  0.2+
130831 568  0.0   0.0     131101 568  0.0   0.1+    141027 568  0.0   0.0
130831 568  0.0   0.0     131105 568  0.1-  0.1-    141124 568  0.1+  0.1-
130904 568  0.1+  0.0     131129 568  0.2+  0.1+    141124 568  0.0   0.1+
130904 568  0.1+  0.1-    131204 568  0.0   0.1+    141125 568  0.1+  0.0
131006 568  0.0   0.0     131204 568  0.1-  0.1-    141125 568  0.0   0.0
131006 568  0.0   0.1-    131206 568  0.0   0.1+    141217 568  0.1+  0.1+
131006 568  0.0   0.1-    140627 568  0.0   0.0     150117 568  0.1+  0.0
131006 568  0.1-  0.1-    140628 568  0.1+  0.0     150820 568  0.0   0.1-
131009 568  0.1-  0.0     140724 568  0.0   0.0     151207 568  0.0   0.1-
131031 568  0.1+  0.0     140727 568  0.1+  0.0

Ephemeris:
2013 UF17                a,e,i = 39.28, 0.25, 17                 q = 29.515
Date    TT    R. A. (2000) Decl.     Delta      r     Elong.  Phase     V
2017 09 20    01 35 50.7 +05 44 16  30.3341 31.2279   152.4     0.9    23.9
...
2017 10 05    01 34 31.2 +05 34 04  30.2594 31.2352   167.1     0.4    23.9
...
2017 10 13    01 33 45.6 +05 28 31  30.2461 31.2390   174.3     0.2    23.8
...
2017 10 19    01 33 10.7 +05 24 24  30.2488 31.2420   175.5     0.1    23.8
2017 10 20    01 33 04.9 +05 23 44  30.2503 31.2425   175.0     0.2    23.8
2017 10 21    01 32 59.1 +05 23 03  30.2522 31.2429   174.3     0.2    23.8
...
2017 10 27    01 32 24.4 +05 19 04  30.2695 31.2459   169.1     0.3    23.9
...
2017 11 04    01 31 39.5 +05 14 02  30.3093 31.2498   161.2     0.6    23.9
...
2017 11 19    01 30 22.8 +05 05 44  30.4330 31.2571   146.0     1.0    23.9

A. U. Tomatic                (C) Copyright 2017 MPC           M.P.E.C. 2017-U123



More information about the Iaude mailing list